Weather History for OTBD - October, 2014

Change the Weather History Date:

Sunday, October 26, 2014

  Actual Average Record
Temperature  
Mean Temperature 84 °F -  
Max Temperature 93 °F 86 °F - ()
Min Temperature 76 °F 68 °F - ()
Cooling Degree Days 20    
Growing Degree Days 34 (Base 50)    
Moisture  
Dew Point 68 °F    
Average Humidity 61    
Maximum Humidity 74    
Minimum Humidity 35    
Precipitation  
Precipitation 0.00 in 0.00 in - ()
Sea Level Pressure  
Sea Level Pressure 29.93 in    
Wind  
Wind Speed 3 mph ()    
Max Wind Speed 8 mph    
Max Gust Speed -    
Visibility 9.6 miles    
Events      
T = Trace of Precipitation, MM = Missing Value Source: Averaged Metar Reports

Daily Weather History Graph

Daily Weather History Graph

Search for Another Location

Airport or City:

Trip Planner

Search our weather history database for the weather conditions in past years. The results will help you decide how hot, cold, wet, or windy it might be!

Date:

Astronomy

Oct. 26, 2014 Rise Set
Actual Time 5:37 AM AST 4:57 PM AST
Civil Twilight 5:14 AM AST 5:20 PM AST
Nautical Twilight 4:47 AM AST 5:47 PM AST
Astronomical Twilight 4:20 AM AST 6:14 PM AST
Moon 7:43 AM AST (10/26) 6:59 PM AST (10/26)
Length of Visible Light 12h 06m
Length of Day
11h 19m
Waxing Crescent, 7% of the Moon is Illuminated
Oct 26
Waxing Crescent
Oct 31
First Quarter
Nov 7
Full
Nov 14
Last Quarter
Nov 22
New

Hourly Weather History & Observations

Time (AST) Temp. Heat Index Dew Point Humidity Pressure Visibility Wind Dir Wind Speed Gust Speed Precip Events Conditions
12:00 AM 80 °F - 67 °F 55% 29.91 in 11 mi North 3.5 mph - -  
12:00 AM 80.6 °F 82.7 °F 66.2 °F 61% 29.89 in - North 3.5 mph - N/A   Clear
12:30 AM 78.8 °F - 66.2 °F 65% 29.89 in - North 2.3 mph - N/A   Clear
1:00 AM 78.8 °F - 66.2 °F 65% 29.89 in - North 2.3 mph - N/A   Clear
1:30 AM 78.8 °F - 66.2 °F 65% 29.89 in - NNW 3.5 mph - N/A   Clear
2:00 AM 78.8 °F - 68.0 °F 69% 29.89 in - Variable 2.3 mph - N/A   Clear
2:30 AM 78.8 °F - 68.0 °F 69% 29.89 in - Variable 2.3 mph - N/A   Clear
3:00 AM 78 °F - 66 °F 58% 29.90 in 10 mi Calm Calm - -  
3:00 AM 78.8 °F - 66.2 °F 65% 29.89 in - Calm Calm - N/A   Clear
3:30 AM 78.8 °F - 66.2 °F 65% 29.89 in - Variable 2.3 mph - N/A   Clear
4:00 AM 78.8 °F - 68.0 °F 69% 29.89 in - Variable 2.3 mph - N/A   Clear
4:30 AM 77.0 °F - 68.0 °F 74% 29.89 in - Variable 2.3 mph - N/A   Clear
5:00 AM 77.0 °F - 68.0 °F 74% 29.92 in - Calm Calm - N/A   Clear
5:30 AM 78.8 °F - 68.0 °F 69% 29.92 in - Variable 2.3 mph - N/A   Clear
6:00 AM 77 °F - 67 °F 65% 29.94 in 9 mi Calm Calm - -  
6:00 AM 77.0 °F - 68.0 °F 74% 29.92 in - Calm Calm - N/A   Clear
6:30 AM 80.6 °F 83.9 °F 69.8 °F 70% 29.95 in - Variable 2.3 mph - N/A   Clear
7:00 AM 82.4 °F 86.3 °F 69.8 °F 66% 29.95 in - SW 3.5 mph - N/A   Clear
7:30 AM 84.2 °F 88.4 °F 69.8 °F 62% 29.95 in - Variable 2.3 mph - N/A   Clear
8:00 AM 86.0 °F 90.4 °F 69.8 °F 58% 29.98 in - Variable 2.3 mph - N/A   Clear
9:00 AM 87 °F - 67 °F 41% 29.99 in 9 mi 2.3 mph - -  
9:00 AM 87.8 °F 90.4 °F 66.2 °F 49% 29.98 in - Variable 2.3 mph - N/A   Clear
10:00 AM 89.6 °F 91.1 °F 64.4 °F 43% 29.95 in - East 3.5 mph - N/A   Clear
11:00 AM 89.6 °F 93.4 °F 68.0 °F 49% 29.95 in - NE 5.8 mph - N/A   Clear
12:00 PM 91 °F - 67 °F 35% 29.93 in 9 mi ENE 6.9 mph - -  
12:00 PM 91.4 °F 94.0 °F 66.2 °F 43% 29.92 in - ENE 6.9 mph - N/A   Clear
12:30 PM 91.4 °F 93.2 °F 64.4 °F 41% 29.92 in - NE 5.8 mph - N/A   Clear
6:00 PM 85 °F - 67 °F 45% 29.95 in 10 mi North 3.5 mph - -  
6:00 PM 86.0 °F 88.2 °F 66.2 °F 51% 29.95 in - North 3.5 mph - N/A   Clear
7:00 PM 84.2 °F 90.9 °F 73.4 °F 70% 29.95 in - North 5.8 mph - N/A   Clear
9:00 PM 84 °F - 74 °F 65% 29.98 in 9 mi NNW 8.1 mph - -  
9:30 PM 84.2 °F 90.9 °F 73.4 °F 70% 29.98 in - NNW 6.9 mph - N/A   Clear
10:00 PM 84.2 °F 89.6 °F 71.6 °F 66% 29.98 in - NNW 6.9 mph - N/A   Clear
10:30 PM 82.4 °F 87.2 °F 71.6 °F 70% 29.98 in - North 4.6 mph - N/A   Clear
11:00 PM 82.4 °F 87.2 °F 71.6 °F 70% 29.98 in - NNW 5.8 mph - N/A   Clear